Location: *
(40.9167°N, 9.5000°E)
Time: 03:42:48
(UTC+00:00)

Aureole 1 Rocket - Pass Details

Date: 09 April 2020
Orbit: 379 x 1379 km, 73.9° (Epoch: 31 May)

Event Time Altitude Azimuth Distance (km) Brightness Sun altitude
Rises 18:32:26 0° 191° (S) 4,268 7.3 -7.5°
Reaches altitude 10° 18:35:27 10° 189° (S) 3,207 6.6 -8.1°
Maximum altitude 18:43:03 73° 107° (ESE) 1,108 4.1 -9.4°
Drops below altitude 10° 18:49:03 10° 24° (NNE) 2,549 6.2 -10.5°
Sets 18:51:14 0° 23° (NNE) 3,349 6.8 -10.9°
